Date,TemperatureHighF,TemperatureAvgF,TemperatureLowF,DewpointHighF,DewpointAvgF,DewpointLowF,HumidityHigh,HumidityAvg,HumidityLow,PressureMaxIn,PressureMinIn,WindSpeedMaxMPH,WindSpeedAvgMPH,GustSpeedMaxMPH,PrecipitationSumIn
2013-1-1,26.6,5.1,-15.5,15.0,-2.4,-21.9,78,71,53,29.62,29.39,8,1,8,0.00
2013-1-2,23.7,17.2,12.4,18.4,11.2,6.8,83,77,67,29.42,29.30,7,0,7,0.00
2013-1-3,22.1,13.6,9.0,16.9,6.8,2.5,81,74,59,29.61,29.42,12,4,12,0.00
2013-1-4,38.8,20.7,9.1,24.6,12.6,3.9,81,72,50,29.48,29.38,11,4,11,0.00
2013-1-5,34.9,16.9,5.0,25.3,9.8,-0.1,84,74,55,29.45,29.21,9,2,9,0.00
2013-1-6,31.1,16.0,8.2,16.9,8.6,2.5,83,73,50,29.57,29.36,13,2,13,0.00
2013-1-7,40.6,28.0,16.3,27.9,20.3,11.8,83,73,60,29.40,29.26,18,4,18,0.00
2013-1-8,46.0,25.9,11.1,33.4,19.8,6.3,85,78,59,29.34,29.13,11,3,11,0.02
2013-1-9,43.3,30.7,20.1,26.8,21.8,13.7,82,70,48,29.71,29.29,19,6,19,0.00
2013-1-10,31.6,30.9,29.5,24.6,24.0,23.1,77,75,74,29.66,29.65,12,6,12,0.00
2013-1-11,40.6,38.5,34.3,37.9,35.5,31.1,90,89,87,29.08,28.76,13,2,13,0.28
2013-1-12,38.8,17.9,5.5,36.1,10.6,-1.6,90,73,61,29.42,28.77,22,8,22,0.00
2013-1-13,19.8,6.6,1.9,8.0,-0.7,-4.1,76,72,56,29.59,29.39,11,3,11,0.00
2013-1-14,18.1,9.7,5.4,8.5,3.0,-0.5,80,74,64,29.74,29.59,13,3,13,0.00
2013-1-15,14.2,13.6,12.6,9.1,8.4,7.5,80,80,78,29.63,29.61,4,1,4,0.00
2013-1-16,45.3,27.0,11.8,34.3,20.3,4.6,83,76,65,29.56,29.06,11,3,11,0.00
2013-1-17,22.6,13.2,3.9,11.7,4.6,-3.4,76,68,55,29.74,29.59,5,0,5,0.00
2013-1-18,50.7,39.4,18.5,35.3,27.8,12.2,80,64,53,29.61,29.14,10,5,10,0.02
2013-1-19,39.0,24.9,15.6,29.7,14.1,4.5,69,63,60,29.38,29.14,20,13,20,0.00
2013-1-20,19.0,11.1,0.1,4.2,-1.1,-9.0,67,58,50,29.73,29.62,11,6,11,0.00
2013-1-21,6.1,-3.9,-14.6,-8.0,-13.6,-22.6,70,63,48,29.69,29.61,15,4,15,0.00
2013-1-22,11.1,0.1,-9.6,-1.4,-9.2,-16.5,72,65,48,29.72,29.57,6,0,6,0.00
2013-1-23,29.1,11.3,-2.2,15.3,0.7,-13.5,77,62,49,29.92,29.48,12,2,13,0.00
2013-1-24,15.4,5.7,-3.8,4.2,-6.3,-14.6,62,57,49,29.99,29.51,13,1,13,0.00
2013-1-25,29.3,14.8,3.6,14.8,4.7,-4.0,72,64,43,29.64,29.31,24,4,24,0.00
2013-1-26,28.2,15.3,-0.9,13.3,4.4,-7.8,76,62,48,29.68,29.46,9,1,9,0.00
2013-1-27,32.7,31.1,25.5,29.1,22.8,13.2,87,72,57,29.46,29.15,10,2,10,0.16
2013-1-28,37.2,32.9,31.3,33.4,29.6,27.9,90,87,84,29.26,28.99,4,0,4,0.00
2013-1-29,36.3,32.9,29.1,31.4,28.8,23.1,90,85,77,29.09,28.89,7,0,7,0.00
2013-1-30,29.1,19.5,10.0,23.1,12.2,3.0,78,73,65,29.12,28.97,11,3,11,0.00
2013-1-31,12.4,3.1,-6.5,3.3,-5.5,-14.1,74,67,50,29.61,29.11,19,5,19,0.00
2013-2-1,-6.5,-8.8,-10.1,-14.1,-15.9,-17.1,71,70,69,29.66,29.61,8,2,8,0.00
2013-2-2,30.2,11.2,3.9,13.8,3.2,-2.3,77,71,46,29.51,29.38,5,0,5,0.00
2013-2-3,25.2,13.9,4.6,9.6,4.9,-1.4,79,68,49,29.43,29.31,15,3,15,0.00
2013-2-4,34.0,16.7,1.6,12.7,3.2,-5.2,83,57,38,29.41,29.23,5,0,5,0.00
2013-2-5,35.6,23.9,2.3,26.1,16.4,-3.1,85,73,64,29.43,29.06,12,2,12,0.00
2013-2-6,38.1,19.7,-1.8,25.8,13.1,-7.2,83,76,60,29.46,29.26,8,1,10,0.00
2013-2-7,28.9,25.6,20.3,23.8,20.6,15.8,86,81,77,29.58,29.30,7,0,7,0.00
2013-2-8,32.9,25.4,22.6,21.3,18.2,16.2,80,74,60,29.71,29.56,11,2,11,0.00
2013-2-9,34.9,29.4,25.5,27.5,24.0,20.2,84,80,74,29.57,29.27,17,7,17,0.00
2013-2-10,35.8,32.3,28.8,32.5,28.8,24.2,89,87,83,29.28,28.62,18,3,18,0.05
2013-2-11,32.5,25.7,16.7,29.7,19.6,10.2,89,78,65,29.40,28.70,21,5,21,0.00
2013-2-12,47.7,27.7,15.3,30.4,19.1,9.5,83,71,49,29.40,29.17,10,2,10,0.04
2013-2-13,48.4,30.7,16.3,33.3,23.3,11.8,86,75,54,29.18,28.92,7,0,7,0.04
2013-2-14,37.9,23.8,12.9,30.2,15.1,4.0,87,70,59,29.52,28.93,6,0,6,0.00
2013-2-15,31.8,13.1,3.4,10.8,2.3,-2.6,77,63,39,29.64,29.52,10,2,10,0.00
2013-2-16,40.1,11.9,1.9,21.7,2.6,-4.5,79,67,42,29.60,29.44,3,0,3,0.00
2013-2-17,41.2,24.4,3.0,24.5,15.2,-3.4,80,69,48,29.45,28.98,13,2,13,0.00
2013-2-18,35.4,23.4,5.7,29.9,16.2,-1.2,81,74,66,29.17,28.90,20,8,20,0.00
2013-2-19,17.2,5.1,-5.1,-0.1,-5.3,-12.9,76,63,42,29.70,29.17,16,5,16,0.00
2013-2-20,30.9,7.3,-9.8,8.8,-4.0,-16.7,74,61,37,29.79,29.69,7,0,7,0.00
2013-2-21,26.2,14.3,1.2,11.2,4.9,-6.1,78,67,52,29.76,29.38,10,1,10,0.00
2013-2-22,35.2,24.7,18.5,22.3,17.7,11.0,84,75,59,29.39,29.20,7,0,7,0.08
2013-2-23,37.0,19.6,7.0,24.5,12.6,1.1,82,75,58,29.32,29.21,8,2,25,0.00
2013-2-24,56.8,16.9,-3.8,32.1,7.0,-9.6,83,67,36,29.44,29.31,6,0,6,0.02
2013-2-25,52.5,27.9,9.5,33.3,17.7,3.5,78,67,48,29.45,29.38,0,0,0,0.00
2013-2-26,45.7,27.4,7.7,29.1,19.6,2.3,85,73,51,29.39,29.20,10,2,10,0.00
2013-2-27,43.3,32.5,25.9,28.9,23.7,19.6,80,71,53,29.36,29.20,9,2,9,0.00
2013-2-28,34.3,29.4,24.4,22.6,20.9,16.2,78,70,61,29.54,29.36,8,1,8,0.00
2013-3-1,39.4,25.2,11.5,21.7,14.0,4.1,76,63,47,29.68,29.61,8,0,8,0.00
2013-3-2,52.0,20.1,0.3,25.3,7.4,-5.8,85,60,34,29.69,29.51,7,0,7,0.00
2013-3-3,41.7,26.8,11.5,19.1,12.3,3.2,72,56,38,29.52,29.33,9,1,9,0.00
2013-3-4,29.3,25.5,22.3,20.6,18.9,16.3,85,76,63,29.38,29.28,14,4,14,0.00
2013-3-5,37.6,27.4,22.5,25.3,21.2,16.7,85,78,61,29.63,29.31,8,0,8,0.08
2013-3-6,40.8,23.3,0.9,22.6,13.8,-6.1,80,68,47,29.75,29.62,7,0,7,0.06
2013-3-7,52.3,19.6,-1.7,30.3,8.7,-7.8,83,64,37,29.72,29.62,0,0,0,0.00
2013-3-8,58.8,32.8,12.7,34.4,22.5,8.0,85,68,39,29.66,29.43,8,0,8,0.00
2013-3-9,38.5,35.5,33.1,34.3,31.5,26.8,88,85,76,29.44,29.05,11,2,11,0.80
2013-3-10,36.5,34.0,29.5,31.4,29.1,26.1,89,82,74,29.28,29.12,8,3,8,0.08
2013-3-11,35.2,27.8,21.0,25.4,21.4,14.6,87,77,64,29.21,29.12,10,1,10,0.08
2013-3-12,45.0,29.4,19.4,22.5,17.7,11.6,80,63,39,29.53,29.20,14,4,14,0.02
2013-3-13,46.0,34.8,19.2,23.6,17.5,11.2,74,50,39,29.73,29.52,9,4,9,0.00
2013-3-14,60.1,35.2,23.0,35.2,23.3,15.6,83,64,38,29.60,29.37,7,0,7,0.00
2013-3-15,37.9,31.5,25.7,30.7,26.1,20.4,86,80,75,29.37,29.15,7,1,7,0.04
2013-3-16,45.3,28.4,14.5,24.0,16.8,5.9,86,63,39,29.57,29.22,6,0,6,0.02
2013-3-17,41.7,22.1,7.0,21.0,10.1,-0.8,74,61,38,29.61,29.24,14,2,14,0.00
2013-3-18,31.8,23.3,11.5,27.9,15.9,5.1,86,73,55,29.24,28.98,27,10,27,0.00
2013-3-19,29.7,16.1,5.5,8.6,3.5,-1.3,76,59,40,29.56,29.21,20,8,20,0.00
2013-3-20,32.9,15.9,4.3,6.9,1.5,-4.0,69,54,32,29.58,29.48,19,4,19,0.00
2013-3-21,9.1,7.3,4.8,-0.3,-1.6,-3.9,68,66,65,29.48,29.47,0,0,0,0.00
2013-3-23,26.4,26.3,26.1,17.6,17.5,17.4,70,69,69,29.47,29.46,0,0,0,0.00
2013-3-24,46.2,30.8,23.5,26.6,20.8,15.5,78,67,45,29.45,29.31,10,1,10,0.00
2013-3-25,54.1,33.9,22.1,25.9,19.2,14.4,74,57,33,29.57,29.37,10,1,10,0.00
2013-3-26,53.1,30.9,21.4,30.4,19.4,13.9,76,64,41,29.65,29.56,8,1,8,0.00
2013-3-27,69.6,35.2,12.0,38.0,18.9,6.4,86,56,26,29.69,29.64,0,0,0,0.00
2013-3-28,52.9,33.0,14.9,30.1,21.0,9.3,84,63,39,29.69,29.62,6,0,6,0.00
2013-3-29,58.8,40.0,25.0,37.3,28.6,18.8,82,66,44,29.64,29.49,4,0,4,0.00
2013-3-30,48.2,48.2,48.2,38.8,38.8,38.8,70,70,70,29.23,29.22,5,5,5,0.02
2013-3-31,44.4,39.7,37.8,29.9,23.9,20.4,73,54,45,29.28,29.20,12,8,12,0.10
2013-4-1,44.4,36.3,19.2,20.8,17.6,12.0,74,48,37,29.60,29.57,8,2,8,0.00
2013-4-2,48.4,40.6,21.9,23.1,20.2,16.4,79,45,35,29.68,29.65,8,1,8,0.00
2013-4-3,21.9,21.2,20.3,16.7,15.8,14.5,80,79,78,29.74,29.73,0,0,0,0.00
2013-4-4,59.9,42.9,31.8,39.2,30.1,23.5,75,62,43,29.51,29.40,8,1,8,0.00
2013-4-5,49.6,35.0,26.4,30.8,26.9,19.5,87,74,44,29.58,29.25,15,3,15,0.05
2013-4-6,60.6,45.3,35.4,47.0,36.0,27.9,83,71,54,29.24,28.85,14,2,14,0.10
2013-4-7,52.0,41.8,34.3,40.6,34.7,29.6,87,76,61,29.31,29.11,9,0,9,0.18
2013-4-8,58.8,44.6,39.6,47.0,39.7,36.1,89,83,63,29.37,29.04,7,0,7,0.37
2013-4-9,40.8,37.6,32.7,36.1,33.0,28.6,88,84,74,29.46,29.33,10,3,10,0.69
2013-4-10,34.3,32.1,30.9,29.3,28.4,27.8,88,86,82,29.51,29.23,8,2,8,0.08
2013-4-12,42.6,35.8,30.2,31.6,28.2,26.0,85,74,63,29.20,29.07,10,2,10,0.00
2013-4-13,30.4,29.5,28.6,26.2,25.6,24.6,86,85,81,29.24,29.20,6,1,6,0.00
2013-4-14,32.7,32.7,32.5,29.0,28.9,28.5,86,86,85,29.06,29.01,0,0,0,0.00
2013-4-17,38.8,36.8,35.4,32.7,30.2,27.9,85,77,74,29.59,29.38,7,4,7,0.04
2013-4-19,30.7,30.7,30.7,27.9,27.7,27.4,89,88,87,28.95,28.86,0,0,0,0.00
2013-4-21,50.2,40.1,33.1,45.0,35.1,26.8,88,82,68,29.65,29.39,12,3,12,0.02
2013-4-22,41.0,37.4,33.4,37.0,33.7,29.8,87,86,85,29.51,29.43,3,0,6,0.00
2013-4-23,55.4,40.4,29.1,38.3,27.0,20.9,82,60,48,29.51,29.42,7,1,9,0.00
2013-4-24,63.7,39.7,23.4,37.3,28.4,17.2,87,67,37,29.44,29.27,17,3,17,0.00
2013-4-25,55.8,43.4,31.8,36.7,31.3,26.1,83,64,43,29.58,29.35,11,4,11,0.00
2013-4-26,76.3,57.5,42.6,51.2,41.3,31.7,72,56,40,29.50,29.35,14,3,14,0.00
2013-4-27,85.8,62.0,38.8,56.5,45.1,33.4,88,58,34,29.51,29.28,12,2,12,0.00
2013-4-28,82.2,64.8,47.1,54.5,48.8,40.9,80,59,37,29.29,29.03,20,6,20,0.00
2013-4-29,79.2,59.7,48.0,54.3,48.5,43.0,86,69,40,29.18,28.93,8,1,8,0.00
2013-4-30,77.9,63.3,56.1,58.9,48.0,35.3,83,60,37,29.33,28.82,12,3,12,0.00
2013-5-1,56.1,39.4,33.1,39.1,33.5,29.6,88,80,49,29.83,29.33,9,1,9,0.00
2013-5-2,48.0,38.1,32.7,34.6,30.4,27.7,89,75,53,29.87,29.74,8,1,8,0.00
2013-5-3,38.8,34.6,32.7,31.6,29.1,26.4,86,80,74,29.74,29.48,9,3,9,0.00
2013-5-4,53.4,41.5,33.1,44.4,36.1,29.3,88,81,70,29.51,29.44,7,2,7,0.00
2013-5-5,68.7,52.8,38.8,50.9,42.4,34.7,86,70,47,29.52,29.43,7,1,7,0.00
2013-5-6,87.1,64.1,41.9,58.3,48.0,38.0,89,60,36,29.48,29.38,7,0,7,0.00
2013-5-7,92.5,68.1,46.9,61.0,49.9,42.4,88,57,29,29.44,29.33,8,1,8,0.00
2013-5-8,90.7,66.3,49.3,58.4,50.7,44.0,84,61,33,29.37,29.30,12,1,12,0.00
2013-5-9,58.6,49.1,45.0,51.6,42.0,33.5,82,76,65,29.43,29.34,15,6,15,0.00
2013-5-10,72.5,55.2,37.6,43.0,34.3,28.7,70,48,27,29.46,29.26,8,2,8,0.00
2013-5-11,61.0,49.6,36.3,40.7,29.8,22.4,68,48,31,29.53,29.24,13,4,13,0.00
2013-5-12,65.3,48.6,30.7,33.4,25.3,19.3,70,43,25,29.58,29.45,11,1,11,0.00
2013-5-13,73.9,55.9,31.8,48.7,37.0,22.7,72,51,31,29.47,29.05,16,4,16,0.00
2013-5-14,99.0,75.9,49.5,62.3,49.2,37.3,76,43,22,29.07,28.84,18,2,18,0.00
2013-5-15,78.6,68.3,58.1,54.3,49.4,44.3,70,52,40,29.32,29.06,9,0,9,0.00
2013-5-16,58.8,56.9,54.3,44.0,42.9,41.4,62,59,58,29.24,29.22,0,0,0,0.00
2013-5-17,59.4,56.8,54.1,54.8,52.6,49.4,88,86,83,29.36,29.30,10,4,10,0.00
2013-5-18,82.8,66.4,55.2,67.1,58.3,51.2,88,77,57,29.38,29.16,16,3,16,0.00
2013-5-19,86.0,72.6,63.7,67.9,62.6,58.4,85,72,55,29.18,28.99,17,5,20,0.00
2013-5-20,79.0,70.7,61.3,63.2,59.7,57.3,89,69,55,28.97,28.92,0,0,0,2.04
2013-5-21,70.9,60.3,54.5,60.2,53.7,50.4,90,79,63,29.06,28.89,10,1,10,0.00
2013-5-22,54.5,52.4,50.4,50.4,48.7,46.3,88,87,86,29.31,29.04,4,0,4,0.00
2013-5-23,69.6,58.2,44.2,45.5,39.3,29.7,81,51,39,29.70,29.43,11,2,11,0.00
2013-5-24,76.5,55.3,34.3,49.0,39.9,29.3,84,59,35,29.74,29.52,8,1,8,0.00
2013-5-25,59.5,55.1,51.3,50.0,46.0,42.1,78,71,63,29.63,29.57,12,4,12,0.00
2013-5-26,55.6,51.7,47.5,48.4,44.1,40.5,82,75,67,29.58,29.40,19,4,19,0.00
2013-5-27,57.0,54.6,52.7,52.8,49.9,47.9,87,84,79,29.40,29.20,10,4,10,0.00
2013-5-28,60.4,57.6,54.7,55.6,53.9,51.8,90,87,84,29.13,29.09,0,0,0,0.00
2013-5-29,79.5,71.4,65.1,68.2,63.7,58.8,84,77,66,29.18,29.03,10,2,10,0.00
2013-5-30,78.1,70.3,62.4,64.4,61.2,57.5,85,73,61,29.02,28.91,55,6,55,0.00
2013-5-31,85.6,71.0,60.6,63.1,57.2,52.3,84,64,44,28.96,28.90,17,6,17,0.00
2013-6-1,68.2,58.9,51.4,58.6,50.8,43.1,82,75,63,29.29,28.94,5,0,5,0.00
2013-6-2,74.3,54.8,49.6,49.7,43.4,40.6,75,67,42,29.44,29.32,0,0,0,0.00
2013-6-3,83.8,69.6,62.4,49.9,46.8,45.8,56,45,31,29.42,29.33,4,1,4,0.00
2013-6-4,62.4,58.5,53.8,50.9,48.8,46.3,78,70,66,29.43,29.37,8,1,8,0.00
2013-6-5,54.0,53.9,53.8,47.4,47.2,47.1,78,78,78,29.42,29.41,29,9,29,0.00
2013-6-7,64.6,64.2,64.0,51.9,51.7,51.6,64,64,63,29.31,29.30,0,0,0,0.00
2013-6-8,65.8,65.8,65.7,54.4,54.0,53.5,67,66,65,29.27,29.26,0,0,0,0.00
2013-6-9,66.9,62.5,59.5,59.9,55.8,53.1,80,79,77,29.16,29.14,7,5,7,0.00
2013-6-10,74.5,69.7,64.6,63.7,61.7,59.3,83,76,69,29.24,29.22,0,0,0,0.00
2013-6-11,82.0,70.6,55.9,69.9,62.0,51.4,86,75,65,29.27,29.18,0,0,0,0.00
2013-6-12,75.7,68.1,63.3,66.5,60.5,55.6,80,77,71,29.28,29.14,7,0,7,0.00
2013-6-13,90.3,63.5,53.2,63.4,52.5,43.5,81,69,40,29.46,29.27,57,1,57,0.00
2013-6-14,76.3,74.3,71.8,60.9,60.0,58.9,64,61,59,29.29,29.27,0,0,0,0.00
2013-6-15,87.1,77.6,67.8,69.5,65.2,59.3,76,66,55,29.29,29.21,7,0,7,0.00
2013-6-16,93.9,89.1,83.3,62.7,58.3,52.6,39,36,34,29.31,29.23,4,0,4,0.00
2013-6-18,79.3,70.3,61.9,62.3,57.5,52.5,75,64,54,29.45,29.38,6,1,8,0.00
2013-6-19,93.0,75.7,57.4,66.4,58.4,50.7,80,58,40,29.44,29.32,9,2,9,0.00
2013-6-20,71.8,70.9,69.8,60.6,59.7,58.7,68,68,67,29.37,29.35,9,6,9,0.00
2013-6-21,86.0,76.5,64.4,69.8,65.3,57.9,82,69,56,29.36,29.16,14,1,14,0.00
2013-6-22,86.5,74.6,63.5,72.7,65.9,57.9,86,75,62,29.41,29.20,7,0,7,0.02
2013-6-23,86.2,75.3,67.3,70.3,65.9,62.6,85,74,58,29.22,29.09,14,2,14,0.00
2013-6-24,91.2,85.8,69.8,74.1,70.3,61.6,76,61,54,29.29,29.18,0,0,0,0.00
2013-6-25,85.5,84.0,82.8,73.3,72.3,71.1,70,68,66,29.12,29.11,0,0,0,0.00
2013-6-26,88.5,84.1,72.3,73.4,68.7,62.1,70,60,54,29.20,29.08,7,2,7,0.00
2013-6-27,92.5,86.2,72.1,67.3,63.9,61.9,70,49,39,29.22,29.20,9,4,9,0.00
2013-6-30,84.2,83.0,81.5,58.0,56.3,54.8,45,41,37,29.46,29.44,0,0,0,0.00
2013-7-1,75.7,69.7,64.9,57.9,56.5,55.5,72,64,54,29.51,29.50,0,0,0,0.00
2013-7-2,94.8,73.2,57.0,64.3,56.2,49.5,76,58,35,29.52,29.43,4,0,4,0.00
2013-7-3,99.0,67.5,55.0,71.2,55.3,49.3,84,69,27,29.45,29.40,0,0,0,0.00
2013-7-4,98.4,78.4,61.2,69.9,58.9,52.1,74,54,34,29.35,29.25,12,1,12,0.00
2013-7-5,96.1,79.2,67.3,67.9,61.5,56.3,69,56,38,29.30,29.20,15,5,15,0.00
2013-7-6,100.2,82.8,70.3,71.2,64.2,59.4,69,55,38,29.27,29.19,11,4,11,0.00
2013-7-7,100.0,85.1,72.1,74.2,68.2,63.0,80,58,41,29.25,29.19,10,1,10,0.00
2013-7-8,90.3,73.5,70.3,71.3,65.9,64.2,81,78,54,29.33,29.24,0,0,0,0.00
2013-7-9,88.9,74.1,68.9,75.6,66.4,63.2,82,77,65,29.27,29.16,6,1,6,0.00
2013-7-10,75.2,67.4,62.2,58.6,56.3,54.7,77,68,56,29.42,29.38,0,0,0,0.00
2013-7-11,99.3,76.8,56.8,70.7,58.9,51.2,84,57,34,29.49,29.36,7,1,7,0.00
2013-7-12,89.4,77.0,67.3,66.3,60.1,55.8,67,57,45,29.39,29.30,15,3,15,0.00
2013-7-13,74.7,70.6,64.8,64.7,58.3,56.2,77,66,57,29.45,29.31,12,2,12,0.00
2013-7-14,96.1,75.0,66.4,71.4,63.0,58.2,77,68,44,29.54,29.43,9,1,9,0.00
2013-7-15,91.6,81.6,74.8,71.5,68.6,66.4,75,66,50,29.56,29.53,5,0,5,0.00
2013-7-16,104.9,85.3,71.8,79.2,70.9,64.7,81,64,44,29.59,29.54,6,1,6,0.00
2013-7-17,105.3,84.8,70.3,78.6,70.9,64.5,82,65,43,29.64,29.49,6,0,6,0.00
2013-7-18,101.8,85.9,73.0,77.9,70.9,65.4,78,62,45,29.50,29.18,10,3,10,0.00
2013-7-19,93.7,82.6,73.2,72.7,67.0,61.5,76,61,44,29.24,29.13,10,4,10,0.00
2013-7-20,91.6,76.1,61.5,69.0,62.3,55.0,81,64,45,29.33,29.26,57,0,57,0.00
2013-7-21,80.6,68.2,61.5,68.5,59.2,54.0,78,73,62,29.33,29.19,7,1,7,0.00
2013-7-22,75.9,66.6,64.2,66.8,60.2,58.3,82,80,72,29.20,29.11,7,1,7,0.00
2013-7-23,88.3,73.4,58.8,61.7,55.9,51.3,77,56,38,29.39,29.32,7,1,7,0.00
2013-7-24,84.6,65.3,54.3,63.2,55.3,48.3,80,71,47,29.46,29.35,3,0,3,0.00
2013-7-25,92.8,71.6,58.6,71.1,60.5,52.2,80,69,47,29.37,29.28,6,1,9,0.00
2013-7-26,81.7,66.1,56.8,62.4,55.2,47.3,82,69,50,29.44,29.28,10,1,10,0.00
2013-7-27,76.3,58.6,50.4,55.0,47.5,43.3,79,67,44,29.44,29.31,11,1,11,0.00
2013-7-28,77.4,59.4,45.1,56.9,48.3,39.4,81,68,46,29.43,29.32,6,0,7,0.00
2013-7-29,89.8,63.7,47.1,64.7,51.3,41.9,84,67,38,29.50,29.43,6,0,6,0.00
2013-7-30,81.0,68.6,62.4,67.0,59.4,54.3,80,73,61,29.47,29.42,4,0,5,0.00
2013-7-31,84.9,67.4,59.2,69.1,58.6,52.0,84,74,54,29.46,29.37,6,0,6,0.00
2013-8-1,95.4,71.1,52.5,64.2,55.8,46.2,80,62,33,29.42,29.24,7,0,7,0.00
2013-8-2,89.4,70.5,56.5,66.1,56.2,48.9,80,63,43,29.41,29.23,4,0,4,0.00
2013-8-3,89.8,66.3,48.7,69.7,51.9,43.1,83,63,36,29.56,29.42,57,1,57,0.00
2013-8-4,90.7,64.0,47.5,64.0,52.5,41.6,83,68,39,29.60,29.39,3,0,3,0.00
2013-8-5,65.3,60.9,58.8,60.0,54.5,51.3,83,80,75,29.39,29.27,5,0,5,0.00
2013-8-6,94.3,71.1,58.8,73.0,61.7,53.0,84,73,50,29.22,29.15,10,0,10,0.00
2013-8-7,87.1,69.6,55.9,63.6,55.7,49.1,83,64,42,29.41,29.20,57,1,57,0.00
2013-8-8,82.0,62.9,50.9,62.6,53.2,45.6,82,72,50,29.43,29.36,3,0,3,0.00
2013-8-9,88.2,67.7,55.2,65.9,54.7,48.2,83,65,43,29.50,29.38,9,0,9,0.00
2013-8-10,87.4,68.0,55.8,63.0,55.2,48.6,79,65,42,29.56,29.46,5,0,5,0.00
2013-8-11,83.1,68.1,61.0,68.6,59.8,54.1,82,75,61,29.47,29.37,2,0,2,0.00
2013-8-12,92.3,67.1,59.9,68.3,57.6,44.8,84,74,42,29.43,29.37,86,4,86,0.00
2013-8-13,87.6,67.1,52.0,61.9,52.7,46.3,83,63,37,29.56,29.43,4,0,4,0.00
2013-8-14,84.0,79.4,64.8,60.0,56.6,51.8,63,46,42,29.58,29.48,0,0,0,0.00
2013-8-15,90.5,62.0,49.3,63.5,50.9,43.6,82,69,41,29.51,29.45,0,0,0,0.00
2013-8-16,92.5,69.3,52.7,65.3,55.1,46.8,83,63,39,29.57,29.51,0,0,0,0.00
2013-8-17,94.5,70.0,50.5,66.1,54.5,44.9,84,61,35,29.58,29.48,7,0,7,0.00
2013-8-18,93.0,72.0,55.6,66.9,57.0,48.4,79,62,39,29.52,29.39,13,0,13,0.00
2013-8-19,92.5,73.5,60.6,72.8,61.8,53.4,78,68,51,29.42,29.29,9,0,9,0.00
2013-8-20,95.5,95.0,94.3,74.1,73.2,72.2,50,49,49,29.30,29.30,2,1,2,0.00
2013-8-21,80.6,77.2,73.2,72.4,69.6,66.4,79,77,75,29.35,29.29,0,0,0,0.00
2013-8-22,70.3,70.3,70.3,59.6,59.6,59.6,69,69,69,29.46,29.46,2,2,2,0.00
2013-8-23,91.8,91.8,91.8,69.8,69.8,69.8,49,49,49,29.50,29.49,0,0,0,0.00
2013-8-24,93.7,87.2,71.6,74.8,71.5,63.6,76,60,51,29.45,29.35,67,10,67,0.00
2013-8-25,103.3,88.9,75.6,78.7,72.8,67.0,75,60,45,29.41,29.33,9,3,9,0.00
2013-8-26,104.2,89.2,77.5,78.1,74.0,69.0,76,62,43,29.38,29.24,10,2,10,0.00
2013-8-27,105.6,90.8,73.6,78.7,73.2,65.6,76,58,41,29.29,29.19,5,2,5,0.00
2013-8-28,96.1,82.5,66.4,77.6,70.4,60.4,82,68,52,29.38,29.29,57,1,57,0.00
2013-8-29,104.9,84.8,72.5,79.4,70.4,64.7,82,64,40,29.38,29.24,10,0,10,0.00
2013-8-30,95.4,78.4,66.6,73.7,66.3,58.7,79,68,45,29.30,29.21,7,0,7,0.00
2013-8-31,102.0,76.1,59.4,74.1,63.6,53.6,84,67,41,29.28,29.11,6,0,6,0.00
2013-9-1,83.5,70.7,59.9,65.6,59.8,52.5,80,69,53,29.35,29.12,7,1,7,0.00
2013-9-2,68.5,58.0,48.0,57.5,49.3,42.1,83,73,60,29.47,29.34,3,0,3,0.00
2013-9-3,85.6,62.7,43.3,63.0,50.5,38.2,84,67,42,29.48,29.38,4,0,4,0.00
2013-9-4,101.1,74.0,55.0,72.6,61.0,48.8,83,66,40,29.51,29.39,0,0,0,0.00
2013-9-5,90.3,73.6,58.8,69.6,61.6,51.6,78,67,47,29.58,29.48,6,0,6,0.00
2013-9-6,98.4,78.7,66.4,72.5,64.6,60.1,82,64,38,29.48,29.25,14,2,14,0.00
2013-9-7,101.1,81.4,66.6,76.8,66.8,58.9,79,63,46,29.36,29.24,7,1,7,0.00
2013-9-8,84.9,71.6,64.6,68.1,61.9,57.7,79,72,54,29.41,29.27,8,2,8,0.00
2013-9-9,95.7,81.0,66.2,75.3,67.8,59.5,81,66,48,29.27,29.02,11,2,13,0.00
2013-9-10,89.1,75.7,65.3,70.3,63.9,58.6,81,68,49,29.37,29.15,6,1,6,0.00
2013-9-11,93.9,78.1,60.4,72.5,60.9,54.5,83,59,35,29.41,29.35,9,2,9,0.00
2013-9-12,87.6,67.5,49.5,59.1,49.9,41.5,81,56,37,29.59,29.43,8,1,8,0.00
2013-9-13,84.9,62.5,41.2,54.0,44.8,35.1,83,56,31,29.64,29.46,8,0,8,0.00
2013-9-14,88.2,60.8,43.7,54.6,46.7,36.9,82,63,31,29.47,29.23,13,1,13,0.00
2013-9-15,68.4,59.2,54.5,56.8,51.9,47.4,83,77,65,29.61,29.24,5,0,5,0.00
2013-9-16,64.2,49.8,40.3,47.3,41.4,35.2,82,73,53,29.74,29.61,3,0,3,0.00
2013-9-17,76.6,57.7,44.8,56.4,48.4,38.0,81,72,49,29.62,29.32,11,0,11,0.00
2013-9-18,76.5,68.4,59.4,67.0,61.7,53.6,84,79,73,29.32,29.09,8,2,8,0.00
2013-9-19,90.1,72.2,63.3,74.2,63.6,55.6,80,75,57,29.19,29.04,9,3,9,0.00
2013-9-20,67.1,58.2,49.5,55.6,49.6,42.8,80,73,59,29.31,29.17,10,4,10,0.00
2013-9-21,77.0,57.4,42.6,53.9,45.5,37.2,84,67,42,29.36,29.28,6,1,6,0.00
2013-9-22,82.8,61.3,42.4,58.0,49.1,37.0,84,66,42,29.34,29.23,12,1,12,0.00
2013-9-23,81.1,64.1,51.6,57.7,50.6,44.5,78,63,43,29.33,29.24,14,1,14,0.00
2013-9-24,85.8,63.5,46.6,60.1,50.0,40.8,83,64,40,29.34,29.28,10,1,10,0.00
2013-9-25,84.4,60.6,44.4,57.9,48.5,39.0,84,67,39,29.35,29.24,9,1,9,0.00
2013-9-26,89.4,70.4,54.9,63.0,56.1,47.6,77,62,41,29.30,29.21,11,1,11,0.00
2013-9-27,86.2,73.1,64.9,65.1,60.3,56.8,75,65,47,29.30,29.19,12,1,12,0.00
2013-9-28,69.6,60.0,44.8,59.6,52.0,39.0,81,75,68,29.34,29.04,15,2,15,0.00
2013-9-29,87.4,62.8,42.6,56.8,46.1,37.2,82,58,34,29.35,29.18,12,2,12,0.00
2013-9-30,84.9,67.7,55.2,57.2,50.5,45.0,72,56,37,29.20,29.00,18,6,18,0.00
2013-10-1,88.0,66.7,43.7,56.1,46.4,36.3,75,51,27,29.37,29.02,10,3,10,0.00
2013-10-2,86.7,61.7,38.8,53.8,43.4,32.9,82,56,26,29.42,29.18,8,1,8,0.00
2013-10-3,60.3,58.3,55.8,54.6,52.7,49.3,83,82,79,29.27,29.18,5,1,5,0.00
2013-10-5,73.6,61.2,55.8,52.8,46.9,44.7,68,60,45,29.20,29.12,1,0,1,0.00
2013-10-6,66.7,51.9,42.4,53.5,44.4,37.3,83,76,59,29.18,29.07,6,1,6,0.00
2013-10-7,81.0,65.9,49.6,54.5,47.0,40.8,74,52,38,29.35,29.27,5,1,5,0.00
2013-10-8,77.7,72.0,66.0,50.4,48.4,47.2,51,44,37,29.26,29.22,19,5,19,0.00
2013-10-9,76.6,62.4,52.5,53.0,48.0,43.6,72,60,43,29.42,29.33,9,1,9,0.00
2013-10-10,88.0,61.4,49.8,61.3,48.2,42.2,75,64,38,29.42,29.26,9,1,9,0.00
2013-10-11,80.8,65.4,55.2,61.5,53.5,48.1,77,66,48,29.26,29.03,14,3,14,0.00
2013-10-12,63.1,52.2,41.5,47.9,38.8,32.9,78,61,45,29.55,29.14,19,3,19,0.00
2013-10-13,77.4,50.0,33.8,48.5,35.7,27.9,80,61,32,29.79,29.55,0,0,0,0.00
2013-10-14,55.2,45.7,35.1,43.2,36.5,29.2,80,71,55,29.76,29.30,8,1,8,0.00
2013-10-15,53.4,49.5,47.1,47.8,43.7,41.9,82,80,78,29.25,29.06,8,1,8,0.00
2013-10-16,53.8,46.5,42.1,44.9,39.9,33.7,83,78,63,29.32,29.17,4,0,4,0.00
2013-10-17,49.1,47.6,46.9,40.4,40.2,39.9,77,76,72,29.19,29.17,0,0,0,0.00
2013-10-18,41.2,40.9,40.6,35.4,35.1,34.9,80,80,80,29.29,29.25,57,2,57,0.00
2013-10-20,46.6,42.1,38.7,39.8,35.5,32.1,78,77,77,29.17,29.01,5,1,5,0.00
2013-10-21,39.9,30.6,24.8,23.9,21.0,18.6,78,68,52,29.32,29.30,6,1,6,0.00
2013-10-22,44.4,31.5,22.3,35.3,24.2,17.1,81,74,63,29.38,29.31,2,0,2,0.00
2013-10-23,39.7,36.4,34.0,24.8,23.1,21.6,61,58,55,29.43,29.38,3,1,3,0.00
2013-10-25,53.4,53.4,53.4,39.1,39.0,39.0,58,58,58,29.18,29.17,7,7,7,0.00
2013-10-26,51.1,47.7,43.5,32.0,31.0,29.7,58,52,48,29.44,29.44,5,3,5,0.00
2013-10-27,67.1,62.5,55.0,40.0,37.7,35.6,49,40,35,29.22,29.17,8,3,8,0.00
2013-10-28,42.6,38.9,34.3,25.3,23.4,21.6,60,54,50,29.74,29.70,2,1,2,0.00
2013-10-29,44.4,40.5,38.8,33.4,32.7,32.2,79,74,65,29.47,29.43,5,2,5,0.00
2013-10-30,50.5,41.8,39.0,45.5,36.5,33.1,83,81,79,29.43,29.12,0,0,0,0.00
2013-11-3,56.8,54.7,52.2,36.2,34.7,33.8,50,47,45,29.32,29.26,19,8,19,0.00
2013-11-4,31.6,31.0,30.2,26.7,26.0,25.3,81,81,81,29.51,29.50,0,0,0,0.00
2013-11-5,43.2,30.4,26.2,38.6,25.3,21.1,84,81,80,29.58,29.34,0,0,0,0.00
2013-11-6,50.7,36.5,31.1,35.5,29.4,26.3,83,76,53,29.45,29.36,4,0,4,0.00
2013-11-9,42.8,42.8,42.8,31.4,31.4,31.4,64,64,64,29.33,29.33,9,9,9,0.00
2013-11-10,52.9,41.3,35.4,35.2,30.5,28.5,76,66,50,29.69,29.48,9,3,9,0.00
2013-11-11,34.9,29.1,24.4,28.7,21.6,15.5,79,74,62,29.78,29.51,8,1,8,0.00
2013-11-14,42.4,36.6,30.0,34.1,30.3,24.9,81,78,72,29.23,29.14,4,0,4,0.00
2013-11-15,62.4,40.5,27.5,45.0,31.0,22.4,82,70,51,29.21,29.09,8,1,8,0.00
2013-11-17,40.8,39.3,37.8,33.4,32.4,31.2,77,76,75,29.02,28.95,10,6,10,0.00
2013-11-19,48.4,43.3,39.9,31.7,30.3,28.6,69,60,48,29.44,29.28,21,11,21,0.00
2013-11-20,44.2,43.1,41.5,32.5,28.7,26.1,70,57,51,29.30,29.25,16,10,18,0.00
2013-11-22,16.2,14.3,12.6,10.5,8.8,7.2,79,78,78,29.90,29.88,0,0,0,0.00
2013-11-23,23.2,15.4,5.5,10.4,4.4,-1.6,77,62,51,30.16,30.03,7,1,7,0.00
2013-11-24,10.8,5.3,2.8,4.0,-0.8,-3.5,77,76,73,30.04,29.87,8,1,8,0.00
2013-11-25,41.5,35.9,31.3,26.5,24.3,21.9,68,63,55,29.42,29.33,8,3,8,0.00
2013-11-26,31.3,30.1,29.1,21.9,20.7,19.9,69,68,67,29.45,29.42,57,23,57,0.00
2013-11-29,30.0,30.0,30.0,20.7,19.7,18.5,68,65,62,29.59,29.53,7,6,7,0.00
2013-11-30,49.6,35.9,28.2,32.3,25.3,21.0,75,66,50,29.50,29.38,0,0,0,0.00
2013-12-1,39.6,28.6,18.5,30.4,21.0,13.0,80,73,63,29.53,29.27,0,0,0,0.00
2013-12-2,43.3,34.5,24.4,34.0,28.3,18.9,82,78,67,29.27,28.94,8,1,8,0.00
2013-12-3,36.1,34.7,33.3,31.1,29.8,28.4,83,82,80,29.10,28.93,7,0,7,0.00
2013-12-4,32.7,28.6,12.7,28.2,24.0,6.9,84,83,78,29.11,28.83,0,0,0,0.00
2013-12-5,15.3,7.2,0.3,6.9,0.6,-5.8,79,74,60,29.69,29.11,0,0,0,0.00
2013-12-6,14.2,-0.3,-7.1,2.0,-7.5,-13.1,77,72,56,29.97,29.68,57,1,57,1.12
2013-12-7,14.7,-1.8,-9.6,2.6,-9.6,-15.2,76,70,51,30.04,29.88,0,0,0,0.29
2013-12-8,19.6,10.6,1.2,11.2,4.6,-5.3,79,77,68,29.88,29.36,0,0,0,0.00
2013-12-9,12.2,1.8,-4.2,7.2,-5.2,-11.3,80,72,56,29.46,29.22,0,0,0,0.28
2013-12-10,16.2,10.3,4.3,10.5,3.0,-2.4,79,72,56,29.58,29.12,0,0,0,0.02
2013-12-11,12.0,-0.7,-7.4,3.6,-9.5,-14.1,74,66,48,29.89,29.59,7,0,7,0.06
2013-12-12,29.8,13.6,2.1,15.6,6.9,-4.9,78,74,51,29.64,29.46,7,0,8,0.13
2013-12-13,21.7,15.3,12.7,12.1,8.6,6.3,79,75,65,29.59,29.44,8,1,8,0.00
2013-12-14,24.1,11.8,0.7,12.7,5.1,-6.1,79,74,59,29.58,29.42,9,1,9,0.12
2013-12-15,19.2,5.0,-0.6,4.9,-4.4,-7.3,74,65,48,29.49,29.42,7,0,7,0.04
2013-12-16,21.4,12.7,3.4,15.9,6.0,-5.2,80,74,67,29.45,29.26,12,2,12,0.00
2013-12-17,32.2,24.6,6.4,25.3,16.6,1.2,80,72,60,29.46,29.24,19,5,19,0.00
2013-12-18,41.7,22.6,6.1,28.4,14.1,0.9,80,71,58,29.43,29.00,12,4,12,0.00
2013-12-19,24.1,19.8,18.0,18.9,13.3,11.1,80,76,67,29.39,29.15,9,3,87,0.00
2013-12-20,21.7,19.1,17.2,14.4,13.0,11.5,79,77,73,29.33,29.20,7,0,8,0.00
2013-12-21,24.4,20.4,16.7,16.8,14.3,11.3,79,77,71,29.32,29.19,7,0,7,0.00
2013-12-22,19.9,17.2,15.4,14.4,11.8,10.1,79,79,79,29.33,29.27,6,0,6,0.00
2013-12-23,7.7,-1.6,-7.1,-4.3,-9.7,-13.6,76,68,52,29.83,29.59,11,3,13,0.00
2013-12-24,17.2,2.2,-13.0,3.4,-6.3,-19.5,78,68,51,29.82,29.52,12,3,12,0.00
2013-12-25,33.1,18.8,10.2,24.8,12.4,4.6,80,76,63,29.50,29.38,14,2,14,0.00
2013-12-26,32.7,21.3,9.7,23.7,15.1,4.4,80,77,68,29.52,29.40,0,0,0,0.00
2013-12-27,43.9,26.8,9.0,31.7,20.0,3.9,81,76,60,29.51,29.26,12,3,12,0.00
2013-12-28,28.8,23.8,21.4,23.9,18.6,16.2,82,80,80,29.32,29.17,0,0,0,0.00
2013-12-29,21.6,7.8,0.0,16.0,-0.5,-7.1,79,69,49,29.63,29.34,9,3,9,0.00
2013-12-30,7.3,1.5,-9.4,-1.4,-5.3,-15.3,77,73,66,29.58,29.48,1,0,1,0.00
2013-12-31,9.1,-1.9,-10.1,-0.2,-8.9,-16.0,77,72,61,29.67,29.52,0,0,0,0.00
2014-1-1,4.6,-0.0,-8.0,-5.4,-8.3,-14.2,74,68,61,29.78,29.70,0,0,0,0.00
2014-1-2,21.4,-1.6,-14.6,4.0,-11.6,-22.9,75,63,43,29.81,29.71,0,0,0,0.00